星链-2494 (STARLINK-2494 )

导读 | 星芒AI

STARLINK-2494 是 SpaceX Starlink 卫星互联网项目中的一颗低轨卫星,属于第二代 Starlink 群体。该卫星由 SpaceX 研发并发射,旨在为全球用户提供高速、低延迟的宽带互联网服务。它运行在约 550 公里的轨道高度,配备先进推进系统和激光通信设备,以提升网络性能和卫星间通信效率。STARLINK-2494 有助于增强 Starlink 网络的覆盖范围和稳定性,支持偏远地区和移动用户的互联网接入需求。

基本信息
目录编号:
48487
目录名称:
STARLINK-2494
国际标识:
2021-040BM
轨道中心:
EARTH
卫星名称:
星链-2494
卫星全名:
星链-2494 (STARLINK-2494 )
卫星状态:
在轨 (已飞行1635 天)
发射日期:
2021-05-09 UTC
国别 :
美国 (US)
星等 :
--
轨道信息
数据来源 国际轨道数据
星历时间: 2025-10-30T09:33:09+0800
11小时前
查看轨道信息
半长轴: 6925.51km
偏心率: 0.0000977
轨道倾角: 53.058°
近地点辐角 114.046°
升交点赤经 68.015°
平近点角 246.063°
近地点: 546.698km
远地点: 548.052km
周期: 95.595分钟
每日圈数: 15.063474
详细信息
固有亮度:
5
最大亮度:
2.5
卫星平台:
Starlink V1.0
覆盖范围:
全球
运营商:
太空探索技术公司
运营商所在国:
美国
制造商(研发单位):
太空探索技术公司
制造商所在国:
美国
使用方式:
暂无
卫星简介
星链(Starlink)计划是由太空探索技术公司(SpaceX)提出的一个巨型低轨卫星互联网星座项目,计划在2019年至2024年间在太空搭建由约1.2万颗卫星组成的“星链”网络,其中1584颗将部署在地球上空550千米处的近地轨道,并从2020年开始工作。该卫星仍在工作。
2D轨道图
3D轨道图
轨道高度分析图
轨道倾角分析图
轨道综合分析图
查看轨道综合分析图